[[{"header":{"parameterUnit":"m.s-1","parameterCategory":1,"la1":30.2991,"la2":30.254,"lo1":-89.0895,"lo2":-89.0444,"dy":0.0017,"dx":0.0017,"nx":28,"ny":28,"refTime":"2024-03-16T21:00:00:Z","depth":0,"parameterNumber":2,"parameterNumberName":"U-component_of_WINDS"},"data":[0,0,0,0,0,0,0,0,0,0,0,0,0,0,0,0,0,0,0,0,0,0,0,0,0,0,0,0,0,0,0,0,0,0,0,0,0,0,0,0,0,0,0,0,0,0,0,0,0,0,0,0,0,0,0,0,0,0,0.3,0.3001,0,0.3122,0.3124,0.3125,0.3189,0.3189,0.3189,0.3189,0.3316,0.3319,0.3322,0,0,0,0,0,0,0,0,0,0,0,0,0,0.2819,0.2822,0.2999,0.3001,0.3003,0.3122,0.3124,0.3125,0.3189,0.3189,0.3189,0.3189,0.3315,0.3319,0.3322,0,0,0,0,0,0,0,0,0,0,0,0,0,0.2915,0.2823,0.2999,0.3049,0.3054,0.3122,0.3124,0.3126,0.3189,0.3189,0.3189,0.3189,0.3313,0.3318,0.3323,0.3351,0,0,0.3338,0.334,0,0,0,0,0,0,0,0,0.291,0.2922,0.304,0.3045,0.3052,0.314,0.3107,0.3201,0.3189,0.3138,0.3189,0.3189,0.3257,0.3267,0.329,0.3357,0.3363,0.3339,0.3342,0.3344,0.3345,0,0,0,0,0,0,0,0.2903,0.2917,0.3048,0.3041,0.3049,0.3064,0.3078,0.3125,0.3195,0.3142,0.3147,0.3161,0.3261,0.3285,0.3293,0.3364,0.3338,0.3343,0.3346,0.3348,0.3459,0.3459,0,0,0,0,0,0,0.2888,0.2911,0.3044,0.3052,0.2979,0.3067,0.3083,0.3112,0.3195,0.3208,0.316,0.3163,0.3276,0.3287,0.3298,0.3335,0.3344,0.3348,0.3351,0.3459,0.3459,0.3459,0,0,0,0,0,0,0.2884,0.29,0.3039,0.2983,0.3002,0.307,0.3102,0.3114,0.3138,0.3209,0.3222,0.3172,0.3277,0.3291,0.3337,0.3341,0.3351,0.3355,0.3459,0.3459,0.3459,0.3411,0,0,0,0,0,0,0.2879,0.2898,0.2909,0.2982,0.3004,0.3076,0.3103,0.3116,0.3147,0.3151,0.3223,0.3235,0.3278,0.3329,0.3342,0.3348,0.3359,0.3459,0.3459,0.3459,0.3412,0.3409,0.3406,0,0,0,0,0,0.2872,0.2891,0.291,0.2925,0.302,0.3077,0.3089,0.3138,0.3147,0.3159,0.3204,0.3233,0.3338,0.3333,0.3348,0.3355,0.3459,0.3459,0.3459,0.3414,0.341,0.3406,0,0,0,0,0,0,0.2818,0.2902,0.2923,0.2967,0.3014,0.3087,0.3104,0.3132,0.3178,0.318,0.3239,0.3254,0.3295,0.333,0.3323,0.3386,0.3402,0.3405,0.3362,0.3359,0.3356,0.3346,0.3363,0,0,0,0,0,0.2811,0.2849,0.2921,0.2952,0.2975,0.3035,0.3061,0.3094,0.3146,0.3166,0.3215,0.3263,0.3307,0.3335,0.3379,0.3418,0.3434,0.343,0.3427,0.3424,0.3426,0.3447,0.3446,0.3459,0.3459,0.3459,0,0,0.2797,0.2848,0.2869,0.2943,0.2983,0.3021,0.3052,0.3091,0.312,0.3172,0.3218,0.3255,0.3313,0.3355,0.3376,0.3386,0.3425,0.3424,0.3421,0.3425,0.3447,0.3446,0.3445,0.3459,0.3459,0.3459,0,0,0.2791,0.2834,0.2864,0.2903,0.2964,0.3003,0.301,0.3079,0.3106,0.3153,0.3192,0.3227,0.3302,0.3341,0.3371,0.3377,0.3406,0.339,0.3375,0.3395,0.3394,0.3393,0.3395,0.3395,0.3392,0.3392,0.3392,0,0.2767,0.2826,0.2876,0.2913,0.2944,0.2992,0.3023,0.3058,0.313,0.315,0.316,0.3253,0.3296,0.3347,0.3348,0.3371,0.338,0.3383,0.339,0.339,0.339,0.3392,0.3392,0.3389,0.339,0.339,0.339,0,0.2792,0.2832,0.2849,0.2917,0.2949,0.2983,0.3038,0.3065,0.3094,0.3132,0.3179,0.3231,0.3286,0.3301,0.3331,0.3356,0.336,0.3379,0.3395,0.3385,0.3388,0.3389,0.3386,0.3387,0.3388,0.3388,0,0,0.2757,0.285,0.2856,0.2886,0.2955,0.2987,0.3022,0.3075,0.3097,0.3144,0.3174,0.3235,0.3253,0.3286,0.3321,0.3338,0.3339,0.3355,0.3358,0.335,0.3368,0.3353,0.3353,0.3358,0.3358,0.3358,0.3363,0,0.2761,0.2826,0.2871,0.2919,0.2956,0.3001,0.3031,0.3076,0.3112,0.3149,0.3189,0.3231,0.3251,0.3272,0.3291,0.3334,0.3343,0.3335,0.3386,0.3387,0.337,0.3355,0.334,0.3342,0.3365,0.3365,0.3365,0,0.2775,0.2819,0.287,0.2933,0.2951,0.2977,0.3029,0.3063,0.3115,0.314,0.3176,0.321,0.3249,0.3261,0.3314,0.3307,0.3331,0.3355,0.3356,0.3363,0.3376,0.3361,0.3344,0.3344,0.3368,0.3367,0.3367,0,0.2743,0.2816,0.2856,0.288,0.2955,0.2973,0.3005,0.3057,0.3085,0.313,0.3149,0.3197,0.3224,0.3261,0.3307,0.3312,0.3355,0.3372,0.3376,0.3375,0.3383,0.3382,0.3369,0.3399,0.3399,0.3399,0.3399,0,0.2743,0.2772,0.2842,0.2866,0.29,0.2951,0.2982,0.3018,0.3063,0.3095,0.3137,0.3165,0.3225,0.3261,0.3298,0.3335,0.3347,0.3368,0.3377,0.3364,0.3361,0.338,0.3381,0.3399,0.3399,0.3399,0.3399,0,0.2714,0.2762,0.2808,0.2875,0.2892,0.2913,0.297,0.2995,0.3033,0.3072,0.3084,0.3143,0.3187,0.3236,0.3297,0.3322,0.3356,0.337,0.3339,0.3344,0.3345,0.3344,0.3344,0.3346,0.3374,0.3374,0.3373,0,0.2711,0.2734,0.2802,0.2826,0.2856,0.2895,0.2923,0.2974,0.3002,0.3061,0.3078,0.3125,0.3165,0.3233,0.3282,0.3328,0.3343,0.3339,0.335,0.3335,0.3342,0.334,0.3342,0.3336,0.3336,0.3336,0.3335,0,0.2699,0.2721,0.2761,0.2808,0.2841,0.2881,0.2923,0.294,0.2999,0.3028,0.3073,0.3104,0.3164,0.321,0.3262,0.3295,0.3324,0.3331,0.3335,0.3321,0.3302,0.3311,0.333,0.3331,0.3332,0.3332,0.3332,0.3332,0.2683,0.2705,0.2756,0.2798,0.2834,0.2872,0.2898,0.2938,0.2976,0.3029,0.3056,0.31,0.315,0.3222,0.3253,0.3288,0.3298,0.3303,0.3305,0.3305,0.3301,0.3296,0.3298,0.3298,0.3298,0.3299,0.3299,0,0.2673,0.2707,0.2746,0.2802,0.2835,0.2859,0.2905,0.2931,0.2969,0.3013,0.3051,0.3101,0.3145,0.3195,0.3242,0.326,0.3275,0.3271,0.327,0.3277,0.329,0.3282,0.3258,0.3258,0.3258,0.3258,0.3258,0.3258,0.2672,0.271,0.2737,0.2793,0.2828,0.2871,0.2895,0.2929,0.2964,0.3018,0.3054,0.3087,0.3133,0.3183,0.3224,0.3237,0.3252,0.3244,0.3262,0.3273,0.3276,0.3279,0.3272,0.3247,0.3247,0.3246,0.3246,0.3246]},{"header":{"parameterUnit":"m.s-1","parameterCategory":1,"la1":30.2991,"la2":30.254,"lo1":-89.0895,"lo2":-89.0444,"dy":0.0017,"dx":0.0017,"nx":28,"ny":28,"refTime":"2024-03-16T21:00:00:Z","depth":0,"parameterNumber":3,"parameterNumberName":"V-component_of_WINDS"},"data":[0,0,0,0,0,0,0,0,0,0,0,0,0,0,0,0,0,0,0,0,0,0,0,0,0,0,0,0,0,0,0,0,0,0,0,0,0,0,0,0,0,0,0,0,0,0,0,0,0,0,0,0,0,0,0,0,0,0,1.8907,1.8907,0,1.8901,1.8901,1.8901,1.8878,1.8878,1.8877,1.8877,1.8871,1.8871,1.8871,0,0,0,0,0,0,0,0,0,0,0,0,0,1.8901,1.8901,1.8907,1.8907,1.8907,1.8901,1.8901,1.8901,1.8878,1.8877,1.8877,1.8876,1.887,1.8871,1.8871,0,0,0,0,0,0,0,0,0,0,0,0,0,1.89,1.8901,1.8907,1.8895,1.8894,1.8901,1.8901,1.8901,1.8878,1.8877,1.8877,1.8876,1.887,1.8871,1.8871,1.889,0,0,1.8873,1.8873,0,0,0,0,0,0,0,0,1.89,1.89,1.8897,1.8896,1.8895,1.8889,1.8896,1.8897,1.8878,1.8884,1.8877,1.8876,1.8877,1.8877,1.8878,1.8889,1.8889,1.8873,1.8873,1.8873,1.8873,0,0,0,0,0,0,0,1.89,1.89,1.8905,1.8897,1.8895,1.889,1.8889,1.8896,1.8885,1.8884,1.8882,1.8882,1.8877,1.8877,1.8878,1.8889,1.8873,1.8873,1.8873,1.8874,1.8915,1.8916,0,0,0,0,0,0,1.8902,1.89,1.8905,1.8904,1.8895,1.8891,1.889,1.8892,1.8885,1.8883,1.8882,1.888,1.8877,1.8877,1.8877,1.8898,1.8873,1.8874,1.8874,1.8915,1.8916,1.8916,0,0,0,0,0,0,1.8902,1.8902,1.8905,1.8902,1.8902,1.8892,1.8894,1.8892,1.8893,1.8884,1.8882,1.8885,1.8876,1.8877,1.8887,1.8898,1.8874,1.8874,1.8914,1.8915,1.8916,1.8941,0,0,0,0,0,0,1.8902,1.8902,1.8909,1.8902,1.8902,1.8915,1.8895,1.8893,1.8894,1.8891,1.8886,1.8884,1.8876,1.8886,1.8887,1.8898,1.8875,1.8913,1.8914,1.8916,1.8939,1.8943,1.8946,0,0,0,0,0,1.8901,1.8916,1.891,1.891,1.891,1.8915,1.8915,1.8905,1.8895,1.8901,1.8896,1.8885,1.8896,1.8887,1.8888,1.89,1.8912,1.8914,1.8915,1.8937,1.8942,1.8946,0,0,0,0,0,0,1.8925,1.8915,1.8908,1.8921,1.8919,1.8911,1.892,1.891,1.8911,1.8909,1.8896,1.8895,1.8907,1.8904,1.8894,1.8917,1.8902,1.8904,1.8919,1.8923,1.8926,1.8927,1.8875,0,0,0,0,0,1.8932,1.8936,1.8928,1.894,1.894,1.893,1.8932,1.8924,1.8921,1.8921,1.8916,1.8914,1.8917,1.892,1.8923,1.8938,1.8937,1.8947,1.895,1.8953,1.8955,1.8964,1.8968,1.8923,1.8923,1.8922,0,0,1.8946,1.8941,1.8945,1.8945,1.8942,1.8948,1.8929,1.8936,1.894,1.8922,1.8931,1.8927,1.8925,1.8938,1.8943,1.8936,1.8967,1.8955,1.8958,1.8958,1.8966,1.897,1.8974,1.8924,1.8924,1.8923,0,0,1.8974,1.8971,1.8981,1.8979,1.8975,1.8969,1.8971,1.8965,1.8962,1.8971,1.8958,1.8963,1.8969,1.8967,1.8967,1.8995,1.8985,1.8997,1.9015,1.9024,1.9027,1.903,1.9041,1.9044,1.8999,1.8999,1.8999,0,1.8992,1.8999,1.8987,1.8995,1.8995,1.8979,1.8989,1.8988,1.8986,1.8987,1.8978,1.8986,1.8983,1.8995,1.9002,1.9003,1.9006,1.8997,1.9027,1.903,1.9033,1.9043,1.9047,1.9,1.9,1.9,1.9,0,1.9021,1.9026,1.9035,1.9033,1.9035,1.9044,1.9034,1.9037,1.9029,1.9023,1.9033,1.9029,1.903,1.9033,1.9025,1.9045,1.904,1.903,1.9015,1.9039,1.9048,1.9052,1.9002,1.9002,1.9001,1.9001,0,0,1.9064,1.9056,1.9059,1.9058,1.9053,1.9057,1.9066,1.9067,1.907,1.9069,1.9076,1.9081,1.9072,1.9072,1.9064,1.9072,1.9094,1.906,1.906,1.9067,1.9116,1.9124,1.9128,1.9088,1.9088,1.9089,1.9116,0,1.9091,1.9105,1.9094,1.911,1.9115,1.9099,1.9107,1.9105,1.91,1.9103,1.9098,1.9102,1.9089,1.9089,1.9096,1.909,1.9104,1.9088,1.9094,1.9094,1.9095,1.9133,1.9141,1.9168,1.912,1.912,1.9121,0,1.9125,1.9125,1.9141,1.9135,1.9137,1.9143,1.9144,1.9148,1.9145,1.9141,1.9141,1.9132,1.914,1.9125,1.9136,1.9125,1.9127,1.9125,1.9125,1.9126,1.9109,1.9135,1.9176,1.918,1.9126,1.9126,1.9125,0,1.9155,1.9159,1.9169,1.9169,1.9163,1.9168,1.9165,1.9162,1.9164,1.9164,1.9165,1.9167,1.9168,1.9169,1.916,1.915,1.9173,1.9157,1.917,1.917,1.9175,1.9175,1.9218,1.9176,1.9176,1.9176,1.9176,0,1.9186,1.9197,1.9183,1.9189,1.92,1.9189,1.92,1.9196,1.9193,1.9199,1.9186,1.9191,1.9179,1.9183,1.9176,1.9187,1.9187,1.9184,1.9182,1.9185,1.9186,1.9187,1.9185,1.9177,1.9177,1.9177,1.9177,0,1.9222,1.9213,1.9223,1.9216,1.9215,1.9223,1.9218,1.9223,1.9217,1.9224,1.9225,1.9216,1.9221,1.9212,1.9215,1.921,1.9225,1.922,1.9226,1.9224,1.9238,1.9237,1.9282,1.9288,1.9243,1.9243,1.9244,0,1.9243,1.925,1.9244,1.9247,1.9245,1.9249,1.9251,1.924,1.9242,1.924,1.9246,1.9249,1.9251,1.9259,1.9252,1.9255,1.925,1.9266,1.925,1.9254,1.9251,1.925,1.9251,1.9269,1.927,1.927,1.9271,0,1.9281,1.9276,1.9278,1.928,1.9282,1.9282,1.9282,1.9285,1.9273,1.9276,1.928,1.9282,1.9285,1.9288,1.9289,1.9287,1.9277,1.9275,1.9279,1.9282,1.9285,1.9284,1.9235,1.9275,1.9274,1.9274,1.9274,1.9273,1.931,1.9316,1.9312,1.9316,1.9314,1.9314,1.9319,1.9314,1.9317,1.9319,1.9312,1.9318,1.9315,1.9316,1.9314,1.9319,1.9312,1.9316,1.9318,1.9319,1.9321,1.9284,1.9319,1.9319,1.9319,1.9319,1.9319,0,1.9347,1.9344,1.9348,1.9347,1.935,1.934,1.9339,1.9342,1.9347,1.9346,1.9348,1.9353,1.9356,1.935,1.9353,1.9357,1.9353,1.9358,1.9358,1.9358,1.9327,1.9324,1.9362,1.9362,1.9362,1.9362,1.9362,1.9362,1.9367,1.9377,1.9372,1.9381,1.9378,1.9383,1.9384,1.9384,1.9382,1.9388,1.9391,1.9387,1.9384,1.9386,1.9389,1.9387,1.9389,1.9396,1.9393,1.9364,1.936,1.9356,1.9353,1.9396,1.9396,1.9423,1.9423,1.9423]}]]